sat.trackr.live / text

‹ back to catalog

STARLINK-32289

NORAD 60737 · 2024-152T

PAYLOAD ACTIVE UNKNOWN

§ Identity

Operator
Country
US
Launch date
2024-08-28
Launch site
AFETR
Launch vehicle
Mass (kg)
RCS (m²)

Purposes: comms

External: N2YO · Heavens-Above · Gunter

§ Orbital elements

Epoch: 2026-09-21T18:50:46.864032Z

Period
93.85 min
Inclination
53.1590°
Eccentricity
0.0001312
Mean motion
15.34388166 rev/d
Perigee alt
461.8 km
Apogee alt
463.6 km
Semi-major
6,840.9 km
B*
6.2772e-6
RAAN
75.4813°
Arg perigee
75.9420°
Mean anomaly
284.1728°
Rev number
11,690

§ Raw data

STARLINK-322891 60737U 24152T   26264.78526463 -.00000164  00000+0  62772-5 0  99982 60737  53.1590  75.4813 0001312  75.9420 284.1728 15.34388166116904

JSON: /api/v1/satellites/60737 · /tle

For live sub-satellite position, see the globe view (requires WebGL).

§ Visibility from observer

Set your observer location to see the next 7 days of passes ≥ 10°. The values pass through the URL so the page stays shareable.

No JS? Fill the form by hand. The geolocation button needs JavaScript.